Regional Weather Roundup
Issued by NWS Northern Indiana

Home | Current Version | Previous Version | Graphics & Text | Print | Product List | Glossary On
Versions: 1 2 3 4 5 6 7 8 9 10 11 12 13 14 15 16 17 18 19 20 21 22 23 24 25 26 27 28 29 30 31 32 33 34 35 36 37 38 39 40 41 42 43 44 45 46 47 48 49 50
362
ASUS43 KIWX 222200
RWRIWX

KIWX WEATHER ROUNDUP
NATIONAL WEATHER SERVICE NORTHERN INDIANA
600 PM EDT THU JUN 22 2017

NOTE: "FAIR" INDICATES FEW OR NO CLOUDS BELOW 12,000 FEET WITH NO
SIGNIFICANT WEATHER AND/OR OBSTRUCTIONS TO VISIBILITY.

* THESE STATIONS ARE NOT UNDER NWS QUALITY CONTROL. THEY ALSO MAY NOT
  REPORT WEATHER SUCH AS PRECIPITATION OR FOG.

INZ001>027-222300-
NORTHERN INDIANA

CITY           SKY/WX    TMP DP  RH WIND       PRES   REMARKS
GARY*          PTSUNNY   86  66  51 S12G32    29.77F
MICHIGAN CITY* CLOUDY    82  68  61 S17G26    29.78F
KNOX*          CLOUDY    79  61  53 SW17G25   29.80F
SOUTH BEND     CLOUDY    83  71  67 S15G22    29.79F
GOSHEN         PTSUNNY   85  69  58 S16G22    29.80F
MONTICELLO*    CLOUDY    82  71  70 S12G17    29.82F
FORT WAYNE     MOSUNNY   85  67  54 SW18G26   29.84F
PERU/GRISSOM   PTSUNNY   81  70  68 S16G22    29.82F

$$
INZ028>050-222300-
CENTRAL INDIANA

CITY           SKY/WX    TMP DP  RH WIND       PRES   REMARKS
LAFAYETTE      PTSUNNY   81  71  71 S14G23    29.82F
KOKOMO*        CLOUDY    83  69  62 SW25      29.86F
MUNCIE*        CLOUDY    82  69  64 SW13G22   29.88F
INDIANAPOLIS   CLOUDY    78  68  71 S20       29.88S

$$
MIZ043>046-050>051-056>058-064>065-071>073-077>080-222300-
SOUTHWEST LOWER MICHIGAN

CITY           SKY/WX    TMP DP  RH WIND       PRES   REMARKS
BATTLE CREEK   CLOUDY    84  70  62 S12       29.81F
BENTON HARBOR  TSTM      80  71  74 SW6G25    29.76F
COLDWATER*     CLOUDY    83  69  64 SW8       29.82F
HILLSDALE*     CLOUDY    81  70  69 S7        29.83F
HOLLAND        CLOUDY    82  69  64 SW9       29.78F
GRAND RAPIDS   CLOUDY    83  68  60 SW10      29.78F
KALAMAZOO      CLOUDY    86  67  52 S9G20     29.79F
STURGIS*       CLOUDY    82  72  71 S8        29.80F
THREE RIVERS*  FAIR      83  70  63 SW10G20   29.81F

$$
OHZ001>008-015>018-024>025-222300-
NORTHWEST OHIO

CITY           SKY/WX    TMP DP  RH WIND       PRES   REMARKS
DEFIANCE       PTSUNNY   85  67  54 S20G29    29.83F
FINDLAY        SUNNY     87  66  49 SW23G31   29.85F
TOLEDO EXPRESS CLOUDY    80  71  74 S10G25    29.82F THUNDER
TOLEDO METCALF TSTM      74  69  85 VRB5G68   29.85S VSB 1/4
LIMA           MOSUNNY   84  68  58 SW18G26   29.88F

$$
AND FOR LAKE MICHIGAN COASTAL AND OPEN LAKE BUOY OBSERVATIONS

STATION/POSITION TEMP    WIND        PRES    VSBY  WAVE
                 AIR SEA DIR/SP/G                  HT/PER
                 (F)     (DEG/KT/KT) (MB)    (MI)  (FT/S)
CALUMET HARBOR    84     200/ 11/ 18 1007.3F
MICHIGAN CITY     83     190/ 17/ 21   N/A
BURNS HARBOR      83     180/ 14/ 22 1008.5F
SOUTH LAKE BUOY   67 61  190/  8/  8 1008.3          2/ 4
4 MI NW BRIDGMAN  75 69  220/  6/ 10 1007.6F         1/ 3
MICHIGAN CITY     78 68  210/ 14/ 17   N/A           2/ 3

$$
&&




USA.gov is the U.S. government's official web portal to all federal, state and local government web resources and services.